Regional Weather Roundup
Issued by NWS Newport/Morehead, NC

Current Version | Previous Version | Text Only | Print | Product List | Glossary Off
Versions: 1 2 3 4 5 6 7 8 9 10 11 12 13 14 15 16 17 18 19 20 21 22 23 24 25 26 27 28 29 30 31 32 33 34 35 36 37 38 39 40 41 42 43 44 45 46 47 48 49 50
000 ASUS42 KMHX 270022 RWRMHX WEATHER ROUNDUP FOR EASTERN NORTH CAROLINA NATIONAL WEATHER SERVICE NEWPORT/MOREHEAD CITY NC 700 PM EST FRI DEC 26 2014 NOTE: "FAIR" INDICATES FEW OR NO CLOUDS BELOW 12,000 FEET WITH NO SIGNIFICANT WEATHER AND/OR OBSTRUCTIONS TO VISIBILITY NCZ015>017-031-032-045>047-102-103-270100- NORTH COAST CITY SKY/WX TMP DP RH WIND PRES REMARKS EDENTON N/A 40 36 88 CALM 30.31S ELIZABETH CITY CLEAR 47 37 68 SW5 30.31R KITTY HAWK CLEAR 47 38 71 W3 30.30R MANTEO CLEAR 39 37 93 CALM 30.32R $$ NCZ045>047-081-094-103-104-270100- CENTRAL COAST CITY SKY/WX TMP DP RH WIND PRES REMARKS FRISCO CLEAR 42 39 89 W5 30.32R SWANQUARTER N/A 45 N/A N/A CALM 30.27S $$ NCZ095-097-098-100-101-270100- SOUTHERN COAST CITY SKY/WX TMP DP RH WIND PRES REMARKS BEAUFORT CLEAR 44 40 85 CALM 30.31S CEDAR ISLAND N/A 46 N/A N/A N2 30.36R JACKSONVILLE CLEAR 45 40 82 CALM 30.31R PINEY ISLAND CLEAR 54 39 57 NE6 30.31R WILMINGTON CLEAR 46 43 89 CALM 30.31R $$ NCZ011>013-027>030-043-044-078>080-089-090>093-098-270100- COASTAL PLAIN CITY SKY/WX TMP DP RH WIND PRES REMARKS AHOSKIE CLEAR 39 36 88 CALM 30.31S CLINTON CLEAR 43 40 89 CALM 30.31S ELIZABETHTOWN CLEAR 45 39 81 CALM 30.31S GOLDSBORO CLEAR 44 43 97 E1 30.29R GREENVILLE CLEAR 43 37 81 CALM 30.32R HAVELOCK CLEAR 46 40 79 CALM 30.31S KENANSVILLE CLEAR 39 38 94 CALM 30.33R KINSTON CLEAR 41 37 87 CALM 30.32R NEW BERN CLEAR 45 39 79 CALM 30.31S RICHLANDS CLEAR 41 37 87 CALM 30.32R ROCKY MOUNT CLEAR 40 37 89 CALM 30.31R WASHINGTON CLEAR 42 39 88 CALM 30.32R WHITEVILLE CLEAR 46 40 79 CALM 30.31R $$ AMZ130-135-150-152-154-156-158-170-250-252-270-ANZ085-086-088-633-658-670-270100- MARINE OBSERVATIONS STATION/POSITION TIME TEMP WIND PRES WAVE SWELL AIR SEA DIR/SP/G HT/PER HT/PER (UTC) (F) (DEG/KT/KT) (MB) (FT/S) (FT/S) CHESAPEAKE LIGHT 0000 48 90/ 5/ 5 1027.3 64 E VA BEACH 0000 50 52 10/ 4/ 4 1026.0 2/13 2/13 DUCK 0000 50 51 250/ 5/ 6 1025.7 2 E DUCK 0000 50 N/A 2/13 2/13 10 NE DUCK 2300 51 N/A 2/13 2/13 OREGON INLET 0000 48 53 CALM / 2 1026.7 13E OREGON INLT 0000 51 N/A 2/ 8 2/13 HATTERAS CG 0000 52 56 300/ 5/ 6 1026.8 DIAMOND BUOY 0000 55 1026.8 3/ 9 17 S OCRACOKE NOT AVBL CAPE LOOKOUT 0000 55 20/ 5/ 5 1026.3 BEAUFORT LAB 0000 49 55 120/ 1/ 2 1025.4 30 SE NEW RIVER 0000 57 61 20/ 2/ 4 1026.9 2/ 7 2/ 7 5 SE WRIGHTSVLE NOT AVBL 225 S CAPE HAT 2249 67 74 40/ 6/ 10 1025.7 3/ 9 3/ 9 41 SE CHARLESTON 0000 62 72 40/ 12/ 12 1025.4 3/ 4 2/ 7 $$

USA.gov is the U.S. government's official web portal to all federal, state and local government web resources and services.